| time (UTC) | temp F | wind direction | speed knots | gust knots | rain 1hr in | rain 24hr in | rain mn in | humidity % | barometer mb |
| 20260507214822 | 68 | 219 | 0.0 | 0.0 | 0.00 | 0.00 | 0.00 | 40 | 1007.8 |
| 20260507213757 | 68 | 134 | 0.0 | 0.0 | 0.00 | 0.00 | 0.00 | 40 | 1007.7 |
| 20260507212738 | 68 | 9 | 0.0 | 0.0 | 0.00 | 0.00 | 0.00 | 41 | 1007.8 |
| 20260507211745 | 68 | 132 | 0.0 | 1.7 | 0.00 | 0.00 | 0.00 | 41 | 1007.9 |
| 20260507210759 | 68 | 48 | 0.0 | 1.7 | 0.00 | 0.00 | 0.00 | 44 | 1007.9 |
| 20260507205738 | 67 | 50 | 0.0 | 2.6 | 0.00 | 0.00 | 0.00 | 45 | 1007.9 |
| 20260507204724 | 67 | 57 | 0.0 | 2.6 | 0.00 | 0.00 | 0.00 | 44 | 1008.0 |
| 20260507203722 | 67 | 104 | 0.0 | 3.5 | 0.00 | 0.00 | 0.00 | 42 | 1008.1 |
| 20260507201551 | 67 | 306 | 0.9 | 4.3 | 0.00 | 0.00 | 0.00 | 43 | 1008.2 |
| 20260507200613 | 67 | 301 | 0.0 | 3.5 | 0.00 | 0.01 | 0.00 | 44 | 1008.3 |
| 20260507195551 | 67 | 209 | 0.0 | 0.0 | 0.00 | 0.01 | 0.00 | 48 | 1008.3 |
| 20260507194607 | 66 | 0 | 0.9 | 4.3 | 0.00 | 0.01 | 0.00 | 43 | 1008.5 |
| 20260507193612 | 66 | 289 | 0.9 | 4.3 | 0.00 | 0.01 | 0.00 | 46 | 1008.6 |
| 20260507192627 | 66 | 22 | 0.0 | 4.3 | 0.00 | 0.01 | 0.00 | 45 | 1008.9 |
| 20260507191552 | 66 | 326 | 0.9 | 5.2 | 0.00 | 0.01 | 0.00 | 51 | 1009.0 |
| 20260507190540 | 65 | 32 | 0.0 | 2.6 | 0.00 | 0.01 | 0.00 | 46 | 1009.1 |
| 20260507185527 | 65 | 324 | 0.9 | 7.0 | 0.00 | 0.01 | 0.00 | 47 | 1009.3 |
| 20260507184538 | 65 | 278 | 2.6 | 7.0 | 0.00 | 0.01 | 0.00 | 44 | 1009.3 |
| 20260507183519 | 65 | 338 | 0.0 | 5.2 | 0.00 | 0.01 | 0.00 | 50 | 1009.4 |
| 20260507182459 | 65 | 355 | 0.9 | 5.2 | 0.00 | 0.01 | 0.00 | 45 | 1009.5 |
| 20260507180244 | 64 | 298 | 0.9 | 7.0 | 0.00 | 0.01 | 0.00 | 44 | 1009.7 |
| 20260507175247 | 64 | 337 | 1.7 | 4.3 | 0.00 | 0.01 | 0.00 | 48 | 1009.9 |
| 20260507174255 | 65 | 0 | 0.0 | 1.7 | 0.00 | 0.01 | 0.00 | 54 | 1010.2 |
| 20260507173254 | 64 | 330 | 0.0 | 1.7 | 0.00 | 0.01 | 0.00 | 50 | 1010.4 |
| 20260507172308 | 63 | 24 | 0.9 | 0.0 | 0.00 | 0.01 | 0.00 | 52 | 1010.5 |
| 20260507171232 | 63 | 267 | 0.9 | 7.0 | 0.00 | 0.01 | 0.00 | 48 | 1010.6 |
| 20260507170227 | 63 | 333 | 0.9 | 7.8 | 0.00 | 0.02 | 0.00 | 51 | 1010.7 |
| 20260507165236 | 62 | 355 | 0.9 | 7.8 | 0.00 | 0.02 | 0.00 | 46 | 1010.8 |
| 20260507164242 | 62 | 323 | 0.0 | 7.8 | 0.00 | 0.02 | 0.00 | 49 | 1011.1 |
| 20260507163247 | 61 | 302 | 2.6 | 7.8 | 0.00 | 0.02 | 0.00 | 43 | 1011.1 |
| 20260507162255 | 62 | 334 | 0.0 | 5.2 | 0.00 | 0.02 | 0.00 | 45 | 1011.2 |
| 20260507161249 | 62 | 30 | 0.9 | 2.6 | 0.00 | 0.02 | 0.00 | 52 | 1011.3 |
| 20260507160309 | 61 | 313 | 0.9 | 5.2 | 0.00 | 0.02 | 0.00 | 49 | 1011.5 |
| 20260507155322 | 60 | 313 | 0.9 | 6.1 | 0.00 | 0.02 | 0.00 | 48 | 1011.6 |
| 20260507154326 | 59 | 316 | 2.6 | 6.1 | 0.00 | 0.02 | 0.00 | 51 | 1011.7 |
| 20260507153252 | 59 | 329 | 1.7 | 6.1 | 0.00 | 0.02 | 0.00 | 52 | 1011.7 |
| 20260507152305 | 59 | 338 | 1.7 | 5.2 | 0.00 | 0.02 | 0.00 | 55 | 1011.8 |
| 20260507151254 | 59 | 344 | 0.9 | 5.2 | 0.00 | 0.02 | 0.00 | 53 | 1011.8 |
| 20260507150227 | 58 | 321 | 0.9 | 5.2 | 0.00 | 0.02 | 0.00 | 58 | 1012.1 |
| 20260507145215 | 57 | 330 | 2.6 | 10.4 | 0.00 | 0.02 | 0.00 | 56 | 1012.3 |
| 20260507144211 | 57 | 315 | 3.5 | 10.4 | 0.00 | 0.02 | 0.00 | 53 | 1012.5 |
| 20260507143145 | 57 | 325 | 0.9 | 7.0 | 0.00 | 0.02 | 0.00 | 58 | 1012.5 |
| 20260507142111 | 56 | 308 | 0.9 | 6.1 | 0.00 | 0.02 | 0.00 | 59 | 1012.6 |
| 20260507141132 | 56 | 355 | 0.0 | 0.0 | 0.00 | 0.02 | 0.00 | 60 | 1012.9 |
| 20260507140124 | 55 | 338 | 0.9 | 3.5 | 0.00 | 0.04 | 0.00 | 61 | 1013.0 |
| 20260507135128 | 55 | 318 | 1.7 | 4.3 | 0.00 | 0.04 | 0.00 | 61 | 1013.1 |
| 20260507134144 | 55 | 336 | 0.9 | 4.3 | 0.00 | 0.04 | 0.00 | 59 | 1013.2 |
| 20260507133124 | 54 | 321 | 0.9 | 2.6 | 0.00 | 0.04 | 0.00 | 62 | 1013.2 |
| 20260507132124 | 54 | 319 | 1.7 | 3.5 | 0.00 | 0.05 | 0.00 | 63 | 1013.5 |
| 20260507131133 | 54 | 321 | 1.7 | 4.3 | 0.00 | 0.07 | 0.00 | 62 | 1013.3 |
| 20260507130157 | 54 | 303 | 1.7 | 4.3 | 0.00 | 0.09 | 0.00 | 65 | 1013.4 |
| 20260507125221 | 53 | 322 | 0.9 | 5.2 | 0.00 | 0.09 | 0.00 | 63 | 1013.3 |
| 20260507124232 | 53 | 331 | 0.9 | 5.2 | 0.00 | 0.10 | 0.00 | 64 | 1013.4 |
| 20260507123203 | 53 | 339 | 0.9 | 2.6 | 0.00 | 0.12 | 0.00 | 64 | 1013.2 |
| 20260507122201 | 53 | 298 | 1.7 | 4.3 | 0.00 | 0.12 | 0.00 | 63 | 1013.1 |
| 20260507121135 | 53 | 311 | 1.7 | 4.3 | 0.00 | 0.12 | 0.00 | 62 | 1013.0 |
| 20260507115027 | 52 | 320 | 0.0 | 0.9 | 0.00 | 0.15 | 0.00 | 64 | 1013.0 |
| 20260507112835 | 52 | 332 | 0.0 | 5.2 | 0.00 | 0.17 | 0.00 | 63 | 1012.7 |
| 20260507111839 | 52 | 330 | 0.9 | 5.2 | 0.00 | 0.17 | 0.00 | 61 | 1012.9 |
| 20260507110843 | 52 | 328 | 0.9 | 3.5 | 0.00 | 0.19 | 0.00 | 61 | 1012.8 |
| 20260507105837 | 52 | 321 | 0.0 | 4.3 | 0.00 | 0.19 | 0.00 | 60 | 1012.7 |
| 20260507104804 | 52 | 335 | 0.9 | 4.3 | 0.00 | 0.19 | 0.00 | 60 | 1012.6 |
| 20260507103814 | 52 | 325 | 0.9 | 3.5 | 0.00 | 0.19 | 0.00 | 62 | 1012.4 |
| 20260507101648 | 53 | 331 | 0.9 | 7.0 | 0.00 | 0.19 | 0.00 | 63 | 1012.1 |
| 20260507095515 | 53 | 319 | 2.6 | 7.0 | 0.00 | 0.19 | 0.00 | 63 | 1011.8 |
| 20260507093404 | 53 | 339 | 0.9 | 3.5 | 0.00 | 0.19 | 0.00 | 65 | 1011.6 |
| 20260507092334 | 54 | 333 | 0.9 | 8.7 | 0.00 | 0.19 | 0.00 | 68 | 1011.6 |
| 20260507090216 | 54 | 310 | 2.6 | 6.1 | 0.00 | 0.19 | 0.00 | 71 | 1011.7 |
| 20260507085206 | 54 | 317 | 2.6 | 6.1 | 0.00 | 0.19 | 0.00 | 72 | 1011.7 |
| 20260507084135 | 54 | 337 | 1.7 | 4.3 | 0.00 | 0.19 | 0.00 | 75 | 1011.6 |
| 20260507083113 | 54 | 323 | 2.6 | 4.3 | 0.00 | 0.19 | 0.00 | 77 | 1011.6 |
| 20260507082040 | 54 | 335 | 1.7 | 4.3 | 0.00 | 0.19 | 0.00 | 78 | 1011.5 |
| 20260507081104 | 54 | 333 | 1.7 | 3.5 | 0.00 | 0.19 | 0.00 | 79 | 1011.3 |
| 20260507080052 | 54 | 313 | 1.7 | 3.5 | 0.00 | 0.19 | 0.00 | 79 | 1011.2 |
| 20260507075023 | 54 | 336 | 0.9 | 3.5 | 0.00 | 0.19 | 0.00 | 79 | 1011.0 |
| 20260507073953 | 54 | 321 | 0.0 | 4.3 | 0.00 | 0.19 | 0.00 | 79 | 1010.9 |
| 20260507072927 | 55 | 329 | 0.0 | 4.3 | 0.00 | 0.19 | 0.00 | 79 | 1011.0 |
| 20260507071932 | 55 | 338 | 0.9 | 2.6 | 0.00 | 0.19 | 0.00 | 78 | 1010.8 |
| 20260507065724 | 55 | 355 | 1.7 | 5.2 | 0.00 | 0.19 | 0.00 | 78 | 1010.8 |
| 20260507064656 | 55 | 315 | 0.9 | 6.1 | 0.00 | 0.19 | 0.00 | 78 | 1011.0 |
| 20260507063631 | 55 | 333 | 2.6 | 7.0 | 0.00 | 0.19 | 0.00 | 77 | 1011.3 |
| 20260507061510 | 55 | 321 | 0.9 | 5.2 | 0.00 | 0.19 | 0.00 | 78 | 1011.5 |
| 20260507060529 | 56 | 316 | 1.7 | 4.3 | 0.00 | 0.19 | 0.00 | 77 | 1011.3 |
| 20260507055509 | 56 | 348 | 1.7 | 5.2 | 0.00 | 0.19 | 0.00 | 77 | 1011.3 |
| 20260507054444 | 56 | 331 | 0.9 | 5.2 | 0.00 | 0.19 | 0.00 | 78 | 1011.2 |
| 20260507053502 | 56 | 336 | 0.0 | 1.7 | 0.00 | 0.19 | 0.00 | 81 | 1011.2 |
| 20260507052428 | 56 | 344 | 0.0 | 2.6 | 0.00 | 0.19 | 0.00 | 81 | 1011.0 |
| 20260507051404 | 56 | 324 | 0.9 | 3.5 | 0.00 | 0.19 | 0.00 | 81 | 1011.3 |
| 20260507050333 | 56 | 341 | 0.0 | 4.3 | 0.00 | 0.19 | 0.00 | 82 | 1011.0 |
| 20260507045313 | 56 | 346 | 0.9 | 2.6 | 0.00 | 0.19 | 0.00 | 84 | 1011.2 |
| 20260507044258 | 56 | 336 | 0.0 | 1.7 | 0.00 | 0.19 | 0.00 | 85 | 1011.2 |
| 20260507043236 | 56 | 116 | 0.0 | 1.7 | 0.00 | 0.19 | 0.00 | 85 | 1010.5 |
| 20260507035930 | 57 | 13 | 0.0 | 4.3 | 0.00 | 0.19 | 0.20 | 84 | 1010.7 |
| 20260507034945 | 57 | 346 | 0.9 | 5.2 | 0.00 | 0.19 | 0.20 | 83 | 1010.7 |
| 20260507032829 | 58 | 327 | 2.6 | 7.8 | 0.00 | 0.19 | 0.20 | 82 | 1010.7 |
| 20260507031845 | 58 | 350 | 2.6 | 6.1 | 0.00 | 0.19 | 0.20 | 81 | 1010.6 |
| 20260507030827 | 58 | 325 | 2.6 | 7.8 | 0.00 | 0.19 | 0.20 | 82 | 1010.7 |
| 20260507025833 | 59 | 302 | 1.7 | 7.8 | 0.00 | 0.19 | 0.20 | 82 | 1010.6 |
| 20260507024856 | 59 | 306 | 0.0 | 4.3 | 0.00 | 0.19 | 0.20 | 82 | 1010.3 |
| 20260507023903 | 59 | 339 | 0.0 | 6.1 | 0.00 | 0.19 | 0.20 | 82 | 1010.4 |
| 20260507022928 | 59 | 13 | 0.0 | 6.1 | 0.00 | 0.19 | 0.20 | 82 | 1010.4 |
| 20260507021938 | 59 | 47 | 0.0 | 3.5 | 0.00 | 0.19 | 0.20 | 83 | 1010.0 |
| 20260507015829 | 59 | 46 | 0.0 | 1.7 | 0.00 | 0.19 | 0.20 | 84 | 1009.9 |
| 20260507013621 | 60 | 315 | 0.0 | 0.0 | 0.00 | 0.19 | 0.20 | 86 | 1010.0 |
| 20260507012628 | 60 | 11 | 0.0 | 0.9 | 0.00 | 0.19 | 0.20 | 85 | 1009.6 |
| 20260507010435 | 61 | 341 | 3.5 | 8.7 | 0.00 | 0.19 | 0.20 | 86 | 1009.7 |
| 20260507005459 | 62 | 304 | 3.5 | 6.1 | 0.00 | 0.19 | 0.20 | 87 | 1010.1 |
| 20260507004500 | 62 | 337 | 2.6 | 8.7 | 0.00 | 0.19 | 0.20 | 86 | 1009.8 |
| 20260507003430 | 63 | 309 | 3.5 | 8.7 | 0.00 | 0.19 | 0.20 | 84 | 1009.7 |
| 20260507002434 | 63 | 311 | 5.2 | 7.8 | 0.00 | 0.19 | 0.20 | 84 | 1009.7 |
| 20260507001425 | 64 | 314 | 3.5 | 7.8 | 0.00 | 0.19 | 0.20 | 86 | 1009.6 |
| 20260507000423 | 65 | 329 | 2.6 | 7.8 | 0.00 | 0.19 | 0.20 | 86 | 1009.3 |
| 20260506235442 | 65 | 332 | 3.5 | 7.8 | 0.00 | 0.19 | 0.20 | 85 | 1009.1 |
| 20260506233318 | 66 | 303 | 2.6 | 8.7 | 0.00 | 0.19 | 0.20 | 85 | 1008.8 |
| 20260506232258 | 66 | 313 | 3.5 | 7.8 | 0.00 | 0.19 | 0.20 | 85 | 1008.1 |
| 20260506231244 | 66 | 327 | 2.6 | 7.8 | 0.00 | 0.19 | 0.20 | 86 | 1008.1 |
| 20260506230308 | 67 | 302 | 1.7 | 6.1 | 0.00 | 0.19 | 0.20 | 88 | 1008.1 |
| 20260506225320 | 67 | 325 | 1.7 | 6.1 | 0.00 | 0.19 | 0.20 | 89 | 1008.1 |
| 20260506224255 | 68 | 290 | 0.0 | 0.9 | 0.00 | 0.19 | 0.20 | 89 | 1008.0 |
| 20260506223319 | 68 | 232 | 0.0 | 1.7 | 0.00 | 0.19 | 0.20 | 88 | 1007.9 |
| 20260506222306 | 68 | 227 | 0.0 | 2.6 | 0.00 | 0.19 | 0.20 | 88 | 1007.8 |
| 20260506221247 | 68 | 253 | 0.0 | 2.6 | 0.00 | 0.19 | 0.20 | 89 | 1007.7 |
| 20260506220239 | 67 | 149 | 0.0 | 0.0 | 0.00 | 0.19 | 0.20 | 91 | 1007.5 |
| 20260506215252 | 67 | 235 | 0.0 | 0.9 | 0.00 | 0.19 | 0.20 | 92 | 1007.5 |